[TLELIST] Archives

 

[list_settings.list_name] Current TLEs

February 14th 2014 PST

HST 1 20580U 90037B 14043.67167269 .00004427 00000-0 29522-3 0 4366 2 20580 028.4706 135.2719 0003488 041.3350 078.4030 15.04663330105943 ISS (ZARYA) 1 25544U 98067A 14045.07250883 .00015856 00000-0 28206-3 0 6765 2 25544 051.6511 349.8947 0004139 133.8313 347.7523 15.50317109872228 CXO 1 25867U 99040B 14046.24248438 .00000431 00000-0 00000+0 0 9919 2 25867 076.5818 326.3020 8278581 275.4764 000.8586 00.37797896 11459 ____________________________________________________________________ These 2-Line ...Continue Reading

[list_settings.list_name] Current TLEs

February 13th 2014 PST

HST 1 20580U 90037B 14043.67167269 .00004427 00000-0 29522-3 0 4366 2 20580 028.4706 135.2719 0003488 041.3350 078.4030 15.04663330105943 ISS (ZARYA) 1 25544U 98067A 14044.29412757 .00016167 00000-0 28766-3 0 6721 2 25544 051.6508 353.7518 0004235 131.2687 323.2290 15.50292926872101 CXO 1 25867U 99040B 14046.24248438 .00000431 00000-0 00000+0 0 9919 2 25867 076.5818 326.3020 8278581 275.4764 000.8586 00.37797896 11459 ____________________________________________________________________ These 2-Line ...Continue Reading

[list_settings.list_name] Current TLEs

February 12th 2014 PST

HST 1 20580U 90037B 14042.54154031 .00003386 00000-0 22301-3 0 4354 2 20580 028.4703 142.6905 0003361 030.4973 075.4759 15.04657903105774 ISS (ZARYA) 1 25544U 98067A 14043.40180105 .00016203 00000-0 28859-3 0 6670 2 25544 051.6503 358.1745 0004087 127.2033 023.9319 15.50263757871961 CXO 1 25867U 99040B 14043.59646551 .00000379 00000-0 00000+0 0 9902 2 25867 076.5725 326.4113 8280720 275.5288 000.6057 00.37795550 11445 ____________________________________________________________________ These 2-Line ...Continue Reading

[list_settings.list_name] Current TLEs

February 11th 2014 PST

HST 1 20580U 90037B 14040.54971422 .00004092 00000-0 27210-3 0 4341 2 20580 028.4698 155.7671 0003281 010.8812 084.5903 15.04642636105462 ISS (ZARYA) 1 25544U 98067A 14042.23897258 .00016199 00000-0 28889-3 0 6604 2 25544 051.6495 003.9360 0004287 126.4645 010.7783 15.50224520871785 CXO 1 25867U 99040B 14043.59646551 .00000379 00000-0 00000+0 0 9902 2 25867 076.5725 326.4113 8280720 275.5288 000.6057 00.37795550 11445 ____________________________________________________________________ These 2-Line ...Continue Reading

[list_settings.list_name] Current TLEs

February 10th 2014 PST

HST 1 20580U 90037B 14040.54971422 .00004092 00000-0 27210-3 0 4341 2 20580 028.4698 155.7671 0003281 010.8812 084.5903 15.04642636105462 ISS (ZARYA) 1 25544U 98067A 14041.27271132 .00013780 00000-0 24735-3 0 6535 2 25544 051.6496 008.7230 0004164 119.3104 021.8964 15.50186335871639 CXO 1 25867U 99040B 14043.59646551 .00000379 00000-0 00000+0 0 9902 2 25867 076.5725 326.4113 8280720 275.5288 000.6057 00.37795550 11445 ____________________________________________________________________ These 2-Line ...Continue Reading

[list_settings.list_name] Current TLEs

February 9th 2014 PST

HST 1 20580U 90037B 14038.76266098 .00003959 00000-0 26302-3 0 4339 2 20580 028.4697 167.4985 0003218 351.4041 125.0575 15.04627859105205 ISS (ZARYA) 1 25544U 98067A 14040.42524453 .00013496 00000-0 24264-3 0 6461 2 25544 051.6502 012.9224 0004178 117.1950 331.4888 15.50160954871507 CXO 1 25867U 99040B 14040.95109507 .00000254 00000-0 00000+0 0 9883 2 25867 076.5560 326.5324 8284799 275.5748 000.4435 00.37798366 11433 ____________________________________________________________________ These 2-Line ...Continue Reading

[list_settings.list_name] Current TLEs

February 8th 2014 PST

HST 1 20580U 90037B 14038.76266098 .00003959 00000-0 26302-3 0 4339 2 20580 028.4697 167.4985 0003218 351.4041 125.0575 15.04627859105205 ISS (ZARYA) 1 25544U 98067A 14039.46840772 .00013449 00000-0 24205-3 0 6405 2 25544 051.6504 017.6634 0004073 112.0779 033.4226 15.50134478871353 CXO 1 25867U 99040B 14040.95109507 .00000254 00000-0 00000+0 0 9883 2 25867 076.5560 326.5324 8284799 275.5748 000.4435 00.37798366 11433 ____________________________________________________________________ These 2-Line ...Continue Reading

[list_settings.list_name] Current TLEs

February 7th 2014 PST

HST 1 20580U 90037B 14037.62645205 .00004899 00000-0 32836-3 0 4326 2 20580 028.4696 174.9587 0003147 339.5337 090.3434 15.04617097105022 ISS (ZARYA) 1 25544U 98067A 14038.24161196 .00011265 00000-0 20439-3 0 6337 2 25544 051.6493 023.7392 0004227 111.9810 022.9535 15.50093301871168 CXO 1 25867U 99040B 14040.95242759 .00000254 00000-0 00000+0 0 9879 2 25867 076.5550 326.5324 8284612 275.5761 000.6253 00.37799577 11436 ____________________________________________________________________ These 2-Line ...Continue Reading

[list_settings.list_name] Current TLEs

February 6th 2014 PST

HST 1 20580U 90037B 14036.49556154 .00004617 00000-0 30878-3 0 4315 2 20580 028.4693 182.3835 0003060 327.3201 084.8535 15.04614455104852 ISS (ZARYA) 1 25544U 98067A 14037.46258483 .00010102 00000-0 18428-3 0 6284 2 25544 051.6493 027.6006 0004211 109.9964 354.8425 15.50069824871048 CXO 1 25867U 99040B 14038.30676752 .00000058 00000-0 00000+0 0 9848 2 25867 076.5418 326.6701 8288130 275.6070 000.4324 00.37801563 11427 ____________________________________________________________________ These 2-Line ...Continue Reading

[list_settings.list_name] Current TLEs

February 5th 2014 PST

HST 1 20580U 90037B 14034.84934832 .00005195 00000-0 34904-3 0 4300 2 20580 028.4693 193.1920 0002987 309.5642 168.1636 15.04599473104619 ISS (ZARYA) 1 25544U 98067A 14036.44164844 .00009411 00000-0 17239-3 0 6211 2 25544 051.6498 032.6590 0004221 106.7970 057.2314 15.50045538870888 CXO 1 25867U 99040B 14038.30887400 .00000058 00000-0 00000+0 0 9831 2 25867 076.5422 326.6714 8287972 275.6084 000.7192 00.37801782 11423 ____________________________________________________________________ These 2-Line ...Continue Reading
  • This mailing list is a public mailing list - anyone may join or leave, at any time.
  • This mailing list is announce-only.

International Space Station (ISS) / Hubble Space Telescope (HST) / Chandra X-Ray Observatory Orbital Data via EMAIL

Privacy Policy:

Private list